Weather History for Whitefield, NH

Change the Weather History Date:

Monday, October 22, 2012

  Actual Average Record
Temperature  
Mean Temperature 48 °F -  
Max Temperature 53 °F 50 °F 78 °F (2007)
Min Temperature 44 °F 26 °F 19 °F (2002)
Degree Days  
Heating Degree Days 18    
Moisture  
Dew Point 38 °F    
Average Humidity 68    
Maximum Humidity 74    
Minimum Humidity 61    
Precipitation  
Precipitation 0.00 in - - ()
Sea Level Pressure  
Sea Level Pressure 29.92 in    
Wind  
Wind Speed 8 mph (WSW)    
Max Wind Speed 13 mph    
Max Gust Speed 22 mph    
Visibility 10 miles    
Events      
Averages and records for this station are not official NWS values.
T = Trace of Precipitation, MM = Missing Value Source: NWS Daily Summary

Daily Weather History Graph

Daily Weather History Graph

Search for Another Location

Airport:

Trip Planner

Search our weather history database for the weather conditions in past years. The results will help you decide how hot, cold, wet, or windy it might be!

Date:

Astronomy

Oct. 22, 2012 Rise Set
Actual Time 7:10 AM EDT 5:49 PM EDT
Civil Twilight 6:41 AM EDT 6:19 PM EDT
Nautical Twilight 6:07 AM EDT 6:53 PM EDT
Astronomical Twilight 5:33 AM EDT 7:26 PM EDT
Moon 2:10 PM EDT (10/22) No Moon Set
Length of Visible Light 11h 38m
Length of Day
10h 38m
First Quarter, 56% of the Moon is Illuminated
Oct 22
First Quarter
Oct 29
Full
Nov 6
Last Quarter
Nov 13
New
Nov 20
First Quarter

Hourly Weather History & Observations

Time (EDT) Temp. Windchill Dew Point Humidity Pressure Visibility Wind Dir Wind Speed Gust Speed Precip Events Conditions
12:52 AM 50.0 °F - 39.0 °F 66% 29.85 in 10.0 mi WSW 9.2 mph - N/A   Overcast
1:52 AM 48.9 °F - 37.9 °F 66% 29.86 in 10.0 mi Variable 4.6 mph - N/A   Overcast
2:52 AM 48.0 °F - 39.0 °F 71% 29.86 in 10.0 mi West 9.2 mph 16.1 mph 0.00 in   Overcast
3:07 AM 46.4 °F 41.5 °F 37.4 °F 71% 29.84 in 10.0 mi West 10.4 mph 17.3 mph N/A   Mostly Cloudy
3:52 AM 46.9 °F - 37.0 °F 68% 29.87 in 10.0 mi West 12.7 mph 21.9 mph N/A   Scattered Clouds
4:52 AM 46.0 °F 42.5 °F 36.0 °F 68% 29.88 in 10.0 mi WSW 6.9 mph - N/A   Partly Cloudy
5:52 AM 45.0 °F 41.8 °F 36.0 °F 71% 29.89 in 10.0 mi Variable 5.8 mph - N/A   Mostly Cloudy
6:14 AM 44.6 °F - 35.6 °F 71% 29.88 in 10.0 mi Calm Calm - N/A   Overcast
9:30 AM 48.2 °F - 39.2 °F 71% 29.90 in 10.0 mi West 8.1 mph - N/A   Overcast
9:40 AM 50.0 °F - 39.2 °F 66% 29.90 in 10.0 mi West 8.1 mph - N/A   Overcast
9:48 AM 48.2 °F - 39.2 °F 71% 29.91 in 10.0 mi West 6.9 mph - N/A   Overcast
10:25 AM 48.2 °F - 37.4 °F 66% 29.91 in 10.0 mi West 4.6 mph - N/A   Overcast
10:52 AM 50.0 °F - 37.9 °F 63% 29.93 in 10.0 mi WNW 8.1 mph 16.1 mph N/A   Overcast
11:52 AM 50.0 °F - 39.0 °F 66% 29.93 in 10.0 mi West 9.2 mph - N/A   Overcast
1:17 PM 48.2 °F - 37.4 °F 66% 29.92 in 10.0 mi West 12.7 mph 18.4 mph N/A   Overcast
1:52 PM 48.9 °F - 39.0 °F 69% 29.94 in 10.0 mi West 5.8 mph - N/A   Overcast
2:52 PM 50.0 °F - 37.9 °F 63% 29.95 in 10.0 mi WSW 9.2 mph - N/A   Overcast
4:52 PM 51.1 °F - 37.9 °F 61% 29.95 in 10.0 mi WSW 5.8 mph - N/A   Mostly Cloudy
6:52 PM 48.9 °F - 37.9 °F 66% 29.98 in 10.0 mi WSW 3.5 mph - N/A   Clear
7:52 PM 46.9 °F - 37.9 °F 71% 30.00 in 10.0 mi SSW 5.8 mph - N/A   Partly Cloudy
9:52 PM 46.9 °F - 37.9 °F 71% 30.01 in 10.0 mi SW 4.6 mph - N/A   Mostly Cloudy
10:52 PM 46.9 °F - 39.0 °F 74% 30.01 in 10.0 mi South 6.9 mph - N/A   Overcast